GW0920 Weather Reports


Display with metric or nautical units.
time (UTC)temp
F
wind
direction
speed
MPH
gust
MPH
rain 1hr
in
rain 24hr
in
rain mn
in
humidity
%
barometer
mb
20260505210617 56 343 0.0 1.0 0.19 0.59 0.59 99 1013.6
20260505205638 56 0.0 0.0 0.18 0.58 0.58 99 1013.7
20260505204602 56 0.0 0.0 0.19 0.58 0.58 99 1013.8
20260505203541 56 0.0 0.0 0.16 0.55 0.55 99 1013.6
20260505202545 56 84 1.0 2.0 0.11 0.49 0.49 99 1013.8
20260505201609 56 87 2.0 3.0 0.03 0.41 0.41 99 1013.8
20260505200529 56 90 2.0 2.0 0.02 0.40 0.40 99 1013.9
20260505195554 56 82 1.0 3.0 0.03 0.40 0.40 99 1013.6
20260505194638 56 109 2.0 3.0 0.02 0.39 0.39 99 1013.6
20260505193538 56 87 3.0 3.0 0.02 0.39 0.39 99 1013.6
20260505192601 56 101 1.0 2.0 0.01 0.38 0.38 99 1013.6
20260505191521 56 99 2.0 3.0 0.01 0.38 0.38 99 1013.5
20260505190546 56 92 1.0 2.0 0.01 0.38 0.38 99 1013.3
20260505185629 56 71 1.0 2.0 0.00 0.37 0.37 99 1013.2
20260505184530 56 73 1.0 2.0 0.00 0.37 0.37 99 1013.1
20260505183614 56 98 2.0 2.0 0.01 0.37 0.37 99 1013.2
20260505182618 56 88 1.0 3.0 0.01 0.37 0.37 99 1013.2
20260505181538 56 84 2.0 5.0 0.01 0.37 0.37 99 1013.2
20260505180601 56 97 4.0 6.0 0.01 0.37 0.37 99 1013.2
20260505175522 56 93 4.0 6.0 0.01 0.37 0.37 99 1013.3
20260505174546 56 109 6.0 9.0 0.01 0.37 0.37 99 1013.2
20260505173611 56 102 4.0 7.0 0.00 0.36 0.36 99 1013.1
20260505172550 56 88 2.0 7.0 0.01 0.36 0.36 99 1013.1
20260505171554 56 71 1.0 5.0 0.02 0.36 0.36 99 1013.3
20260505170618 56 118 4.0 6.0 0.02 0.36 0.36 99 1013.3
20260505165538 56 122 4.0 6.0 0.02 0.36 0.36 99 1013.3
20260505164603 56 116 4.0 7.0 0.02 0.36 0.36 99 1013.4
20260505163603 56 100 5.0 7.0 0.02 0.36 0.36 99 1013.3
20260505162547 56 95 4.0 6.0 0.01 0.35 0.35 99 1013.4
20260505161610 56 118 4.0 7.0 0.01 0.34 0.34 99 1013.5
20260505160530 56 107 5.0 9.0 0.01 0.34 0.34 99 1013.4
20260505152532 57 115 5.0 7.0 0.01 0.34 0.34 99 1013.6
20260505151629 57 106 7.0 10.0 0.00 0.33 0.33 99 1013.7
20260505150531 57 94 6.0 8.0 0.00 0.33 0.33 99 1013.7
20260505140530 58 80 4.0 6.0 0.00 0.33 0.33 99 1013.7
20260505124530 57 59 2.0 6.0 0.00 0.33 0.33 99 1014.2
20260505123555 56 90 3.0 5.0 0.00 0.33 0.33 99 1014.2
20260505122618 57 60 3.0 6.0 0.00 0.33 0.33 99 1014.2
20260505121537 57 61 4.0 7.0 0.00 0.33 0.33 99 1014.0
20260505120546 57 58 1.0 5.0 0.00 0.33 0.33 99 1014.0
20260505115610 56 25 4.0 6.0 0.00 0.33 0.33 99 1014.2
20260505114530 56 15 3.0 5.0 0.00 0.33 0.33 99 1014.1
20260505113614 56 37 3.0 6.0 0.00 0.33 0.33 99 1014.3
20260505112618 56 30 1.0 5.0 0.00 0.33 0.33 99 1014.3
20260505111538 55 16 2.0 6.0 0.01 0.33 0.33 99 1014.4
20260505110602 56 15 1.0 3.0 0.03 0.33 0.33 99 1014.5
20260505101614 55 26 2.0 3.0 0.09 0.32 0.32 99 1014.4
20260505100618 55 33 2.0 3.0 0.07 0.30 0.30 99 1014.5
20260505095539 55 328 1.0 3.0 0.06 0.28 0.28 99 1014.5
20260505094604 55 341 1.0 2.0 0.05 0.26 0.26 99 1014.5
20260505093522 55 334 2.0 2.0 0.03 0.24 0.24 99 1014.4
20260505092546 55 360 1.0 3.0 0.03 0.24 0.24 99 1014.3
20260505091554 54 2 1.0 2.0 0.02 0.23 0.23 99 1014.2
20260505090618 55 326 1.0 3.0 0.02 0.23 0.23 99 1014.3
20260505085538 55 340 1.0 2.0 0.01 0.22 0.22 99 1014.0
20260505084546 56 15 1.0 1.0 0.00 0.21 0.21 99 1013.9
20260505083610 56 79 1.0 2.0 0.00 0.21 0.21 99 1014.1
20260505082530 55 60 1.0 3.0 0.01 0.21 0.21 99 1013.9
20260505081614 55 70 1.0 2.0 0.02 0.21 0.21 99 1014.0
20260505080618 55 39 2.0 5.0 0.03 0.21 0.21 99 1014.1
20260505075522 56 19 2.0 5.0 0.06 0.21 0.21 99 1014.0
20260505074547 55 43 1.0 3.0 0.09 0.21 0.21 99 1013.9
20260505073613 55 34 2.0 3.0 0.12 0.21 0.21 99 1013.6
20260505072530 55 40 1.0 2.0 0.13 0.20 0.20 99 1013.7
20260505071554 55 67 1.0 2.0 0.13 0.19 0.19 99 1013.8
20260505070619 55 0.0 0.0 0.14 0.18 0.18 99 1013.8
20260505065631 55 0.0 0.0 0.14 0.15 0.15 99 1014.0
20260505064618 55 305 0.0 1.0 0.12 0.12 0.12 99 1013.9
20260505063523 55 0.0 0.0 0.09 0.09 0.09 99 1013.9
20260505062547 55 299 1.0 3.0 0.07 0.07 0.07 99 1014.0
20260505061554 56 289 0.0 1.0 0.06 0.06 0.06 99 1013.8
20260505060619 56 316 1.0 2.0 0.04 0.04 0.04 99 1013.9
20260505055538 58 338 0.0 1.0 0.01 0.01 0.01 99 1013.9
20260505054602 58 189 0.0 1.0 0.00 0.00 0.00 99 1013.7
20260505053525 58 282 2.0 5.0 0.00 0.00 0.00 99 1013.6
20260505052546 59 340 1.0 2.0 0.00 0.00 0.00 99 1013.5
20260505051610 60 183 2.0 3.0 0.00 0.00 0.00 99 1013.4
20260505050530 60 239 1.0 3.0 0.00 0.00 0.00 99 1013.3
20260505041538 60 340 0.0 2.0 0.00 0.00 0.00 99 1013.0
20260505040602 60 0.0 0.0 0.00 0.00 0.00 99 1013.0
20260505035522 60 344 0.0 1.0 0.00 0.00 0.00 99 1013.0
20260505034530 60 350 0.0 1.0 0.00 0.00 0.00 99 1012.9
20260505033554 60 308 0.0 1.0 0.00 0.00 0.00 99 1013.2
20260505032638 60 345 0.0 1.0 0.00 0.00 0.00 99 1013.3
20260505031558 60 105 0.0 1.0 0.00 0.00 0.00 99 1013.4
20260505030602 60 154 0.0 1.0 0.00 0.00 0.00 99 1013.5
20260505025611 60 333 1.0 1.0 0.00 0.00 0.00 99 1013.5
20260505024550 60 0.0 0.0 0.00 0.00 0.00 99 1013.7
20260505023650 60 96 0.0 1.0 0.00 0.00 0.00 99 1013.9
20260505022530 60 126 1.0 2.0 0.00 0.00 0.00 99 1013.9
20260505021554 60 347 0.0 1.0 0.00 0.00 0.00 99 1014.0
20260505020618 60 3 0.0 1.0 0.00 0.00 0.00 99 1014.0
20260505015522 60 0.0 0.0 0.00 0.00 0.00 99 1014.1
20260505014546 60 305 1.0 3.0 0.00 0.00 0.00 99 1014.1
20260505013610 60 329 1.0 2.0 0.00 0.00 0.00 99 1014.2
20260505012530 60 345 2.0 5.0 0.00 0.00 0.00 99 1014.5
20260505011554 61 339 1.0 3.0 0.00 0.00 0.00 99 1014.8
20260505010618 62 83 1.0 2.0 0.00 0.00 0.00 99 1014.8
20260505005538 62 253 1.0 3.0 0.00 0.00 0.00 99 1014.9
20260505004546 62 294 1.0 1.0 0.00 0.00 0.00 99 1015.1
20260505003610 62 332 1.0 2.0 0.00 0.00 0.00 99 1015.2
20260505002530 62 289 1.0 3.0 0.00 0.00 0.00 99 1015.4
20260505001634 62 0.0 0.0 0.00 0.00 0.00 99 1015.5
20260505000638 62 0.0 0.0 0.00 0.00 0.00 99 1015.7
20260504235558 62 0.0 0.0 0.00 0.00 0.00 99 1015.8
20260504234602 62 0.0 0.0 0.00 0.00 0.00 99 1015.9
20260504233542 62 0.0 0.0 0.00 0.00 0.00 99 1016.0
20260504232546 62 0.0 0.0 0.00 0.00 0.00 99 1016.3
20260504231610 62 0.0 0.0 0.00 0.00 0.00 99 1016.4
20260504230530 62 0.0 0.0 0.00 0.00 0.00 99 1016.4
20260504225538 62 0.0 0.0 0.00 0.00 0.00 99 1016.4
20260504224602 62 0.0 0.0 0.00 0.00 0.00 99 1016.5
20260504223522 63 0.0 0.0 0.00 0.00 0.00 99 1016.5
20260504222546 63 340 0.0 1.0 0.00 0.00 0.00 99 1016.7
20260504221610 64 262 1.0 2.0 0.00 0.00 0.00 99 1016.7
20260504220618 63 0.0 0.0 0.00 0.00 0.00 99 1016.7
20260504215522 64 0.0 0.0 0.00 0.00 0.00 99 1016.8
20260504214546 64 257 0.0 2.0 0.00 0.00 0.00 99 1016.8
20260504213554 64 357 0.0 1.0 0.00 0.00 0.00 99 1017.0
20260504212618 64 238 0.0 1.0 0.00 0.00 0.00 99 1017.1
20260504211538 65 41 0.0 1.0 0.00 0.00 0.00 99 1017.1